Temp
10 10 10 10 9 10 9 9 9 9 9 9 9 10 10 12 12 13 12 12 12 11 12 12 12 13 13 13 14 15 16 15 14 15 14 15 15 15 16 16 17 17 18 20 20 20 18
10 9 9 9 9 10 9 10 10 9 9 9 10 10 12 13 13 13 13 13 12 12 12 12 13 13 13 13 15 15 15 15 15 15 15 15 15 15 15 16 17 18 18 19 19 19 19
9 9 9 9 10 9 9 9 9 9 9 9 10 13 13 13 13 13 13 13 13 13 13 13 13 12 12 14 15 16 16 15 15 15 15 16 16 16 15 15 17 18 19 18 18 18 19
9 9 9 9 10 9 9 9 9 9 9 9 12 13 13 13 14 14 13 13 14 14 13 13 13 12 13 16 16 16 16 16 16 16 15 16 16 16 15 15 16 18 17 16 18 18 20
9 9 9 9 9 9 9 9 9 9 9 11 14 14 13 13 14 14 14 14 14 14 14 13 13 13 14 16 16 16 16 15 16 16 16 16 16 15 15 15 14 14 15 17 18 18 18
9 9 9 10 9 9 9 9 9 9 12 13 13 13 13 13 14 14 15 14 14 14 14 13 13 13 15 15 16 16 16 16 16 15 15 15 12 12 12 12 13 16 16 17 18 18 19
9 9 11 10 9 11 11 9 9 12 14 13 13 13 12 13 14 14 15 15 12 12 13 14 14 15 15 16 16 16 16 16 15 14 13 14 11 12 14 14 15 15 17 16 17 19 19
10 10 12 13 11 11 12 12 9 11 14 13 13 13 13 13 14 14 14 12 12 12 11 14 15 15 16 16 15 16 16 14 14 13 14 13 13 15 15 15 15 15 16 16 16 18 18
10 11 11 13 12 13 12 13 11 12 14 14 13 13 13 13 14 14 13 12 12 13 11 14 16 16 16 16 15 15 16 15 15 14 15 14 15 16 15 16 17 17 16 17 17 18 19
12 11 12 12 12 14 14 14 14 13 14 14 14 14 14 14 14 13 12 12 12 13 10 14 16 16 17 16 15 17 16 15 15 15 15 14 15 16 16 17 16 16 16 17 17 16 15
12 12 12 12 12 14 14 14 15 14 14 14 14 14 14 14 13 12 12 12 13 13 9 15 16 17 17 16 16 16 16 16 14 14 14 14 15 15 16 16 16 16 16 17 18 16 16
12 11 11 12 12 14 14 14 14 15 14 14 14 14 13 13 13 12 12 13 13 9 9 14 16 16 16 16 16 16 15 15 15 14 14 14 15 14 15 15 16 16 17 14 12 12 12
10 10 11 11 12 14 14 14 14 14 14 14 14 13 13 13 12 13 13 12 9 10 14 15 15 15 15 15 16 15 15 14 14 12 11 14 15 15 15 15 15 15 12 10 12 10 12
9 10 10 10 11 12 14 14 14 14 14 14 14 13 13 12 12 12 12 11 12 15 14 15 15 14 15 16 16 15 15 13 14 14 10 11 11 14 14 15 15 15 13 10 14 12 13
9 10 10 10 10 11 13 14 14 14 14 14 14 13 13 12 12 12 10 9 12 14 14 13 14 15 15 16 16 15 14 14 14 15 14 13 14 14 14 14 14 16 14 14 13 12 13
9 9 10 10 10 10 11 13 14 14 14 13 13 13 13 12 12 12 10 13 12 14 14 14 14 15 15 14 15 15 15 14 14 14 14 15 13 14 14 14 14 15 14 13 10 15 15
8 9 9 10 10 10 10 12 13 14 14 13 12 11 12 12 12 9 11 11 14 14 14 14 14 14 15 14 14 15 15 15 13 13 14 14 13 13 14 12 13 12 13 14 12 12 14
8 8 8 9 9 9 10 11 12 13 14 12 11 13 12 12 12 7 12 14 14 14 14 14 13 13 14 14 14 15 15 14 13 13 13 13 11 11 13 13 13 13 14 13 12 15 11
8 8 8 8 9 9 9 10 10 11 13 12 9 9 11 11 14 12 13 14 13 14 13 14 14 14 14 14 14 15 15 14 13 13 13 12 11 9 13 12 13 13 13 14 12 10 12
8 8 8 8 8 8 9 9 9 10 11 11 9 12 10 8 9 14 15 14 15 13 13 14 13 14 14 14 13 14 15 14 13 13 12 12 10 11 11 14 13 13 13 12 13 8 12
8 7 7 7 8 8 8 8 9 10 11 11 7 11 11 12 12 13 14 14 15 15 12 12 13 12 14 13 14 13 14 14 12 12 12 11 11 9 10 10 10 11 12 12 9 13 13
7 7 7 7 7 7 7 8 8 9 10 10 9 10 8 10 12 13 12 13 14 15 13 13 12 14 11 12 14 14 14 13 14 11 12 10 11 11 10 11 10 10 10 10 10 12 11
8 8 7 7 7 7 7 7 8 8 10 9 9 9 9 10 11 11 12 13 14 14 15 14 12 13 12 12 12 12 11 12 12 13 11 10 10 11 11 11 11 12 11 11 11 11 12
8 8 7 7 7 7 7 7 7 8 8 8 8 8 8 10 10 11 14 12 14 13 14 15 12 12 13 12 11 11 9 8 8 9 9 10 10 10 10 11 12 14 13 12 11 12 11
8 8 8 8 8 8 7 7 7 7 7 8 8 8 6 8 9 10 12 12 13 12 12 13 12 11 10 12 11 11 11 12 10 9 9 8 9 9 10 10 12 15 13 13 14 14 11
8 8 8 8 8 8 8 7 8 7 7 7 7 8 6 6 9 11 12 12 11 10 10 11 10 10 10 9 10 11 12 12 12 10 8 8 8 9 8 10 12 15 13 12 12 12 11
8 8 8 8 8 8 8 8 8 8 8 7 7 7 7 5 6 9 9 10 10 10 9 10 9 9 10 8 9 8 9 11 11 11 8 7 7 8 7 8 10 11 12 12 13 14 11
7 7 7 7 7 7 7 7 7 8 7 7 7 7 7 4 4 7 9 9 9 9 11 9 9 8 6 8 8 8 7 9 10 10 9 9 7 6 6 8 9 10 11 12 11 10 11
4 4 4 4 5 5 6 6 6 7 7 7 6 7 7 6 7 8 8 8 9 10 9 7 9 8 8 7 6 7 8 7 9 10 9 10 11 10 9 10 11 8 11 10 8 9 9
Height
852 850 849 848 846 844 842 840 837 835 833 831 830 830 829 828 828 826 823 820 817 815 813 811 808 806 804 804 803 800 799 796 794 794 794 794 795 795 797 795 792 794 787 782 778 778 784
853 851 849 848 846 844 841 838 836 834 832 831 829 828 827 827 826 825 823 820 817 815 813 812 810 807 806 809 802 800 798 796 795 795 795 796 796 794 797 794 793 788 787 785 783 781 783
853 851 850 848 846 843 840 837 835 833 831 829 828 827 826 825 824 823 822 820 818 816 814 813 811 809 808 808 803 801 799 798 797 796 796 795 794 795 795 794 788 786 790 788 787 785 786
852 851 849 847 845 842 839 837 834 833 831 828 826 826 825 824 823 822 820 819 818 816 815 814 812 810 809 803 802 801 799 798 797 797 796 794 793 793 794 790 788 788 794 805 788 787 782
851 850 848 846 844 841 839 837 834 833 830 828 827 825 824 823 822 821 820 818 817 816 814 813 813 811 810 804 802 801 800 799 798 797 795 794 793 794 795 798 802 801 808 801 794 786 785
851 849 848 846 844 841 837 835 833 830 829 828 827 826 824 823 821 820 818 816 815 814 813 812 812 816 807 808 803 801 800 799 798 797 796 795 800 804 806 808 816 804 801 797 796 791 787
851 849 846 846 844 841 837 835 833 829 829 829 827 825 824 822 822 820 818 815 818 818 814 816 813 812 809 806 804 802 800 799 798 800 804 799 811 811 804 803 801 803 799 802 795 784 788
850 849 846 845 844 841 838 834 832 829 829 829 827 825 824 823 822 821 820 822 826 827 825 813 812 810 807 807 806 802 801 804 803 808 801 807 810 800 798 797 800 802 802 801 793 785 790
849 848 847 844 843 840 838 834 831 828 828 828 828 826 825 825 824 824 823 825 826 826 828 817 810 809 807 807 807 805 802 803 804 805 803 807 799 793 795 796 795 795 801 796 795 786 785
848 848 846 845 843 840 838 835 831 828 828 828 827 827 826 825 827 825 826 825 825 826 838 823 813 810 807 805 809 803 802 805 806 806 802 804 798 796 795 796 798 799 793 791 791 799 811
848 847 846 844 843 840 838 835 831 828 827 826 827 827 826 824 825 825 826 824 824 825 869 819 813 807 806 810 808 805 803 803 809 808 810 809 802 802 798 796 796 799 793 790 787 796 800
847 847 845 844 842 840 837 835 831 828 827 827 826 827 826 826 825 825 824 823 825 848 868 827 812 812 812 809 808 804 806 805 804 807 805 805 799 801 799 796 794 793 792 799 807 813 828
848 846 845 844 842 840 837 835 832 829 828 827 827 827 826 826 826 825 824 825 848 856 829 826 822 814 816 812 809 808 807 811 813 824 823 807 802 798 798 798 794 796 811 840 831 840 825
848 847 846 844 842 840 838 836 832 830 828 827 826 826 825 826 825 825 824 833 847 832 831 821 819 819 817 808 808 808 811 814 807 810 828 827 825 802 799 799 800 798 807 832 817 829 818
847 846 845 844 843 841 838 836 834 831 828 826 825 825 825 824 824 825 830 855 844 833 830 830 823 820 819 809 809 810 811 814 809 806 816 816 810 800 799 800 800 797 807 803 814 819 818
847 846 844 843 842 841 838 835 833 830 827 826 826 824 825 824 824 825 836 837 836 828 827 827 831 822 824 821 818 813 811 810 809 806 808 807 817 801 799 798 799 798 801 812 829 810 809
845 846 845 843 841 840 838 835 832 830 826 825 826 826 823 824 824 829 842 840 829 825 826 828 828 828 822 821 819 815 812 809 811 810 807 807 814 810 803 805 803 808 804 804 811 816 809
844 844 845 843 841 840 837 835 832 830 826 825 826 830 824 823 830 843 834 828 827 825 824 825 825 825 822 820 819 812 812 809 810 811 811 810 816 821 805 798 797 798 798 802 814 801 814
843 843 843 843 841 840 838 835 833 830 827 825 827 829 825 825 831 833 829 825 826 827 827 825 824 821 819 821 823 814 809 808 809 809 810 813 818 834 805 804 799 798 795 794 804 813 805
841 841 841 842 841 839 837 836 833 830 829 827 829 831 827 828 829 825 823 823 821 824 824 823 823 823 821 819 817 816 810 807 809 810 810 813 820 817 822 800 799 797 795 795 796 828 801
840 840 840 840 840 838 837 835 833 830 828 828 828 828 827 830 825 825 824 824 821 820 824 823 822 822 821 822 816 816 809 807 810 810 812 813 817 821 813 808 805 800 795 793 808 787 788
837 838 838 838 838 838 837 834 832 830 827 827 830 828 829 828 822 822 825 822 820 814 818 820 822 814 821 822 814 811 809 811 807 813 812 816 812 809 810 795 800 799 796 794 792 786 790
835 835 836 836 836 836 836 834 832 831 827 826 827 827 827 826 824 825 821 815 813 811 807 808 813 814 816 812 809 808 807 806 806 806 814 816 817 812 803 795 795 790 782 783 783 782 774
832 832 833 833 833 834 834 833 831 831 830 829 827 829 830 827 826 820 809 813 809 811 809 804 810 811 806 805 805 806 809 810 812 811 811 811 814 815 809 800 794 769 766 768 772 766 770
829 829 830 831 831 832 832 831 830 831 830 829 829 828 832 829 822 817 812 810 807 807 809 805 803 803 803 806 812 810 807 799 804 810 809 813 814 817 810 810 783 759 764 765 763 761 764
824 825 826 827 827 828 830 828 828 829 828 828 829 828 829 832 817 808 808 805 809 811 811 803 804 803 804 812 814 813 807 799 798 808 813 815 816 817 819 808 788 761 762 765 766 772 763
820 820 821 822 823 824 826 826 825 825 825 825 828 828 827 831 815 811 812 806 801 803 806 803 803 806 805 817 819 820 813 796 798 798 815 819 823 822 821 816 792 768 764 765 768 765 761
813 814 815 817 819 820 820 820 821 822 821 821 822 823 823 826 815 809 806 804 801 801 800 802 804 806 815 813 815 808 811 796 791 786 795 796 814 820 822 816 803 764 766 767 761 761 760
812 812 813 814 813 814 814 815 816 815 815 816 815 815 817 817 806 802 799 795 795 797 797 797 791 793 791 802 807 804 798 799 788 789 784 784 773 784 787 777 756 760 755 755 758 757 758
Wind_Speed
7 8 8 8 9 11 11 11 10 10 9 8 7 7 8 9 10 12 13 15 15 13 11 12 9 11 4 3 2 10 12 9 3 2 1 3 2 2 1 3 2 4 3 2 3 4 5
6 7 7 9 10 11 12 11 12 10 9 8 7 5 6 7 8 10 11 12 13 11 10 12 9 10 3 3 7 11 10 7 3 1 3 2 2 4 3 4 3 0 6 4 1 3 3
6 7 9 9 10 12 13 13 11 11 9 7 6 5 5 6 7 8 9 9 9 9 9 9 10 8 1 3 9 11 6 6 2 2 0 2 2 2 2 5 1 2 2 0 4 4 5
6 7 8 9 10 11 13 13 12 10 8 6 4 4 5 6 6 7 8 8 7 6 5 7 11 6 3 5 7 10 9 5 1 3 4 7 5 1 2 5 5 5 5 4 4 6 4
6 7 8 9 10 11 12 13 12 10 8 5 4 4 6 5 6 8 9 9 8 7 8 8 5 4 5 9 5 6 7 5 5 5 6 8 2 0 5 2 4 6 3 3 1 6 3
6 6 8 8 9 11 12 11 10 8 7 6 7 7 7 5 6 8 9 10 6 8 4 3 4 3 5 5 6 8 5 6 2 3 5 3 4 3 4 4 4 1 3 1 3 5 2
5 6 7 9 11 12 13 13 11 7 5 6 9 9 6 3 5 7 11 3 6 4 5 1 5 2 5 7 5 4 3 6 3 3 3 3 5 2 5 3 2 4 3 1 3 4 5
4 5 8 10 10 13 14 15 13 9 4 7 10 8 5 3 4 6 7 5 2 1 5 6 6 4 6 3 3 3 4 4 4 3 4 4 1 4 4 4 4 4 2 5 5 5 7
4 5 6 9 9 12 14 16 15 9 4 6 9 7 5 4 4 6 7 5 2 2 0 5 4 3 3 1 3 4 3 4 2 5 3 1 4 5 3 3 1 1 4 3 4 2 1
4 5 6 7 9 12 14 16 16 10 4 5 7 5 5 3 2 3 2 5 2 2 4 6 3 3 2 1 3 2 3 1 4 3 5 4 5 4 2 1 0 0 4 4 4 5 4
3 5 6 7 9 11 13 16 17 9 3 4 6 4 3 6 2 2 3 5 2 2 6 6 5 2 2 1 2 2 2 2 2 4 4 5 4 4 2 2 1 5 3 3 2 3 3
4 4 5 7 8 10 12 15 18 12 3 3 4 4 2 1 2 2 3 2 1 6 3 6 3 4 4 1 2 2 1 1 2 3 2 5 1 2 2 3 2 3 2 6 4 3 2
3 3 5 7 8 9 11 13 15 11 5 1 2 4 4 2 1 3 2 2 5 6 3 7 4 3 3 3 2 1 1 3 1 4 4 4 3 3 1 2 2 2 5 2 3 3 5
1 3 5 7 8 10 9 11 13 12 5 1 1 3 2 3 3 3 1 5 8 2 4 3 3 7 3 1 3 2 3 3 2 2 1 2 7 3 4 2 2 1 5 4 4 3 4
1 2 4 7 8 10 10 10 12 13 8 2 1 2 2 3 2 3 4 5 4 3 2 5 8 3 4 3 1 1 3 2 2 2 2 2 4 2 1 2 1 1 0 2 4 2 2
2 1 3 5 8 10 11 10 10 12 12 2 2 1 2 5 2 2 4 3 4 3 1 1 2 2 3 5 5 1 2 2 2 0 1 2 4 2 2 1 2 2 2 2 3 2 4
2 0 2 4 6 8 11 12 11 12 12 2 0 2 0 2 1 4 3 5 4 3 3 3 1 3 3 3 2 3 3 2 3 5 2 1 1 4 2 5 5 1 2 2 2 4 3
3 1 2 4 6 9 10 12 13 12 11 2 2 1 1 1 3 1 1 3 1 3 3 3 2 4 3 3 4 2 2 4 1 1 3 2 2 4 8 3 3 4 3 4 4 3 3
4 3 3 5 6 8 11 12 14 15 13 2 2 2 1 2 2 1 3 2 3 2 3 2 3 4 0 2 2 3 3 1 1 0 1 2 2 4 7 4 2 4 4 5 2 2 5
4 3 4 5 6 8 10 13 13 14 14 3 2 1 3 3 1 3 1 3 2 3 3 3 3 1 2 3 5 4 3 1 1 1 1 1 1 5 5 4 2 4 3 4 6 2 2
5 5 5 5 6 8 9 11 13 14 14 1 1 3 3 2 3 3 2 2 2 3 3 3 3 5 4 3 3 4 3 3 2 0 0 2 4 4 7 9 6 7 9 7 7 8 9
7 7 6 6 7 8 10 10 13 14 13 1 2 2 2 2 1 4 4 5 7 4 6 4 5 3 6 6 7 5 2 3 4 1 1 1 4 2 5 8 5 6 10 10 9 6 9
10 9 8 8 7 7 8 10 11 14 10 2 2 1 3 3 1 4 5 6 6 5 5 5 8 3 5 11 7 7 5 4 4 2 3 3 2 2 5 3 7 7 6 7 5 5 7
9 10 9 8 8 8 7 8 9 11 11 5 3 1 3 4 3 5 3 6 7 6 5 3 5 5 4 2 3 2 3 6 6 6 6 3 1 2 4 5 2 6 3 5 8 7 8
8 8 10 10 9 10 9 8 7 9 9 8 4 1 2 4 4 5 8 6 5 5 5 5 6 5 3 3 2 5 4 2 1 2 4 4 4 3 2 2 8 3 1 2 1 4 0
12 12 11 10 9 11 12 10 8 9 10 10 9 4 1 1 5 4 4 5 5 4 4 4 0 2 3 2 2 5 5 6 3 1 3 3 2 3 0 2 4 2 2 2 2 4 3
17 16 15 15 14 14 15 13 10 11 12 11 6 3 0 2 5 3 5 4 4 2 3 1 3 2 2 3 4 5 5 5 5 6 5 3 1 5 4 4 8 6 3 1 2 3 0
10 12 15 16 17 17 16 15 14 15 12 15 13 10 8 3 5 4 4 5 2 2 5 3 3 1 2 4 4 5 5 6 3 5 7 9 8 4 2 3 8 7 2 5 5 3 2
9 6 3 3 4 7 10 13 16 18 16 17 17 19 19 9 6 15 17 28 22 18 2 4 4 5 5 3 2 0 4 2 4 4 1 3 7 6 9 8 5 7 7 5 4 5 5
Wind_Direction
52 47 27 20 16 9 2 355 350 341 335 325 310 322 323 319 329 335 344 353 358 1 8 7 14 1 8 7 333 342 340 333 312 172 267 337 340 344 285 213 324 173 270 318 218 193 228
38 39 34 19 10 9 7 4 353 349 337 328 312 312 311 316 324 331 342 355 3 11 6 3 4 359 10 45 328 343 351 348 349 149 347 339 300 278 277 266 153 302 256 240 232 287 207
37 32 26 19 8 9 9 5 0 352 343 332 318 298 312 319 324 329 337 347 1 10 12 13 6 357 17 244 336 342 339 348 267 307 303 287 310 24 303 299 276 212 222 39 219 206 234
34 31 24 15 12 12 10 10 1 352 340 328 316 307 313 320 323 328 331 336 335 336 349 344 345 348 271 355 342 2 6 352 52 297 301 310 296 252 222 296 343 147 91 138 237 152 267
42 25 22 20 16 15 15 9 7 354 350 353 0 332 315 316 325 328 325 321 313 303 308 317 355 17 320 330 338 349 350 342 275 303 297 301 331 31 353 37 24 9 175 168 154 215 137
44 28 23 20 18 17 20 14 10 11 14 26 10 345 321 309 332 333 330 317 316 315 336 301 294 4 335 308 319 334 9 352 330 341 348 10 40 47 26 55 189 56 110 119 196 204 181
42 29 30 22 18 21 21 15 10 21 35 19 359 348 332 330 355 353 358 15 14 354 22 254 282 232 280 310 307 328 339 332 356 36 32 328 56 200 235 215 229 295 322 328 273 205 148
45 27 34 41 25 23 18 20 13 17 32 12 0 5 7 29 29 21 25 66 86 253 328 292 264 275 271 311 320 302 349 28 27 339 314 18 287 246 260 283 273 252 271 283 275 230 181
60 35 37 43 29 27 17 18 14 19 52 24 9 19 42 41 61 52 74 64 359 334 118 302 261 278 280 9 317 306 25 338 321 340 332 213 278 323 166 282 296 218 172 235 225 36 129
67 41 44 36 24 30 22 17 17 22 63 37 25 30 55 19 71 20 57 9 347 316 61 303 341 292 317 280 330 304 350 86 339 313 347 293 324 333 277 159 1 249 267 256 226 137 196
59 52 39 27 24 26 22 16 15 23 92 70 36 36 40 44 66 78 323 336 332 89 45 290 298 277 323 350 271 330 312 22 288 292 58 262 320 345 300 246 208 221 283 285 196 135 85
79 49 35 25 21 23 23 20 19 22 76 96 58 39 18 42 71 360 333 334 104 45 304 326 307 316 348 222 263 323 6 358 250 316 305 245 255 207 252 290 243 306 337 33 53 75 38
84 47 27 24 19 19 22 20 23 35 40 62 50 32 22 1 349 334 344 59 38 79 348 306 301 332 323 265 274 229 260 301 211 40 345 326 284 280 215 303 322 89 60 7 5 5 215
82 45 28 24 16 13 18 16 19 18 31 15 331 342 20 13 342 339 97 53 62 292 288 335 314 308 262 296 259 240 307 302 218 55 29 86 333 331 356 260 218 322 141 151 190 191 242
174 51 33 26 16 14 11 10 9 11 5 345 301 310 312 2 343 326 73 51 201 214 268 313 321 338 317 319 252 321 216 249 316 204 170 342 276 276 227 324 349 293 256 185 107 359 40
200 20 38 20 18 10 13 6 2 2 357 332 298 342 328 347 352 38 74 215 217 216 280 333 323 20 316 316 345 340 304 289 326 64 111 267 305 234 285 3 262 265 158 53 10 200 250
200 296 8 14 10 10 9 7 359 358 355 9 34 46 130 334 350 54 114 227 242 221 195 178 229 290 283 281 264 300 307 338 9 317 318 194 154 288 350 195 192 354 235 149 146 158 201
227 259 337 358 359 1 7 7 2 358 4 27 83 8 317 106 50 49 140 201 275 243 205 253 203 221 258 306 302 280 269 226 346 270 322 333 175 262 233 282 203 182 220 179 134 234 220
247 262 302 330 348 352 358 4 5 3 10 350 116 236 318 304 126 284 263 254 212 220 241 222 249 218 194 271 309 242 289 205 232 68 194 341 298 331 338 360 330 238 208 173 128 83 215
251 271 292 316 327 338 349 353 0 2 357 360 85 0 327 40 331 155 199 246 234 197 251 224 255 261 287 256 208 281 285 275 197 251 164 103 201 196 218 233 211 273 262 234 154 138 235
257 279 305 315 332 338 337 344 350 353 345 302 74 240 188 253 267 180 151 290 243 241 217 196 259 218 207 282 277 229 241 300 180 47 112 173 249 205 251 253 245 247 245 221 203 225 200
250 260 271 287 302 316 336 341 346 350 343 238 155 141 19 259 253 173 189 233 204 225 163 230 210 196 193 214 213 246 207 212 253 171 229 191 275 303 284 274 231 259 250 234 230 230 257
253 258 268 271 285 300 319 342 349 351 1 22 6 4 104 266 202 132 216 220 221 172 235 195 197 190 226 240 235 240 221 233 213 209 207 191 232 322 261 333 322 288 234 216 212 210 204
256 249 263 276 283 285 298 309 339 351 8 3 29 4 100 265 193 205 233 203 224 215 230 237 175 167 232 111 298 268 238 244 230 239 202 183 171 216 277 327 242 243 191 192 203 246 222
248 268 271 273 280 280 284 289 300 317 339 350 323 31 176 245 224 280 258 233 272 245 238 225 220 203 138 57 356 331 327 322 156 33 185 189 142 273 269 269 296 283 221 154 134 282 308
254 253 252 267 277 284 281 280 281 285 298 314 311 252 151 165 244 228 242 216 232 226 307 232 112 149 86 124 136 214 222 223 244 211 26 71 78 159 344 242 263 266 199 165 195 289 326
251 254 257 258 259 259 265 266 272 273 272 276 271 252 93 245 274 199 225 215 180 161 206 270 177 163 96 154 196 200 230 199 199 191 180 145 157 207 225 258 280 257 234 205 164 236 317
218 241 254 257 259 261 263 267 267 261 258 258 259 241 199 220 277 266 295 254 276 198 204 202 80 260 84 179 182 226 199 221 187 194 183 172 167 199 139 208 278 173 95 186 206 189 209
67 65 38 317 285 276 274 272 271 265 260 259 247 249 243 230 257 271 259 265 255 258 208 219 218 177 194 133 214 240 237 208 196 225 107 229 194 189 185 212 230 194 198 211 187 173 196